Location: Rounton
(54.4000°N, 1.3500°W)
Time: 00:06:17
(UTC+01:00)

Vanguard 1 - Pass Details

Date: 29 February 2024
Orbit: 653 x 3825 km, 34.2° (Epoch: 22 April)

Event Time Altitude Azimuth Distance (km) Brightness Sun altitude
Rises 01:02:38 0° 272° (W) 6,987 14.3 -42.6°
Reaches altitude 10° 01:08:31 10° 260° (W) 6,366 13.9 -42.3°
Enters shadow 01:09:39 12° 257° (WSW) 6,271 13.9 -42.3°
Maximum altitude 01:22:45 23° 218° (SW) 5,829 - -41.7°
Drops below altitude 10° 01:37:56 10° 177° (S) 6,745 - -40.7°
Sets 01:44:38 0° 164° (SSE) 7,475 - -40.3°
